Change the Weather History Date:

Sunday, October 14, 2012

  Actual Average Record
Temperature  
Mean Temperature 65 °F 61 °F  
Max Temperature 82 °F 78 °F 98 °F (1906)
Min Temperature 48 °F 44 °F 32 °F (1966)
Degree Days  
Heating Degree Days 0 5  
Month to date heating degree days 47  
Since 1 July heating degree days 80  
Cooling Degree Days 0 1  
Month to date cooling degree days 19  
Year to date cooling degree days 832  
Growing Degree Days 15 (Base 50)    
Moisture  
Dew Point 52 °F    
Average Humidity 65    
Maximum Humidity 96    
Minimum Humidity 33    
Precipitation  
Precipitation 0.00 in 0.06 in 0.70 in (1908)
Month to date precipitation T 0.36  
Year to date precipitation 18.92 24.33  
Since 1 July precipitation T 0.95  
Snow  
Snow 0.00 in - - ()
Month to date snowfall 0.0  
Since 1 July snowfall 0.0  
Since 1 September snowfall 0.0  
Snow Depth -    
Sea Level Pressure  
Sea Level Pressure 30.14 in    
Wind  
Wind Speed 2 mph (North)    
Max Wind Speed 14 mph    
Max Gust Speed 16 mph    
Visibility 10 miles    
Events      
T = Trace of Precipitation, MM = Missing Value Source: NWS Daily Summary

Daily Weather History Graph

Daily Weather History Graph

Search for Another Location

Airport or City:

Trip Planner

Search our weather history database for the weather conditions in past years. The results will help you decide how hot, cold, wet, or windy it might be!

Date:

Astronomy

Oct. 14, 2012 Rise Set
Actual Time 7:22 AM PDT 6:34 PM PDT
Civil Twilight 6:55 AM PDT 7:01 PM PDT
Nautical Twilight 6:24 AM PDT 7:32 PM PDT
Astronomical Twilight 5:53 AM PDT 8:03 PM PDT
Moon 6:27 AM PDT (10/14) 5:58 PM PDT (10/14)
Length of Visible Light 12h 06m
Length of Day
11h 12m
Waning Crescent, 1% of the Moon is Illuminated
Oct 14
Waning Crescent
Oct 15
New
Oct 21
First Quarter
Oct 29
Full
Nov 6
Last Quarter

Hourly Weather History & Observations

Time (PDT) Temp. Heat Index Dew Point Humidity Pressure Visibility Wind Dir Wind Speed Gust Speed Precip Events Conditions
12:56 AM 57.0 °F - 53.1 °F 87% 30.19 in 10.0 mi Calm Calm - N/A   Clear
1:56 AM 52.0 °F - 50.0 °F 93% 30.19 in 10.0 mi Calm Calm - N/A   Clear
2:56 AM 55.0 °F - 51.1 °F 86% 30.17 in 10.0 mi Calm Calm - N/A   Clear
4:56 AM 52.0 °F - 48.9 °F 89% 30.17 in 10.0 mi Calm Calm - N/A   Clear
5:56 AM 48.9 °F - 46.9 °F 93% 30.19 in 10.0 mi Calm Calm - N/A   Clear
6:56 AM 51.1 °F - 48.0 °F 89% 30.20 in 10.0 mi Calm Calm - N/A   Clear
7:56 AM 48.9 °F - 46.9 °F 93% 30.22 in 10.0 mi Calm Calm - N/A   Clear
8:56 AM 55.0 °F - 51.1 °F 86% 30.22 in 10.0 mi Calm Calm - N/A   Clear
9:56 AM 63.0 °F - 53.1 °F 70% 30.21 in 10.0 mi Calm Calm - N/A   Clear
10:56 AM 66.9 °F - 54.0 °F 63% 30.20 in 10.0 mi Calm Calm - N/A   Clear
11:56 AM 73.0 °F - 55.0 °F 53% 30.17 in 10.0 mi Calm Calm - N/A   Clear
12:56 PM 77.0 °F - 55.0 °F 47% 30.14 in 10.0 mi Calm Calm - N/A   Clear
1:56 PM 80.1 °F 79.9 °F 53.1 °F 39% 30.11 in 10.0 mi NNW 4.6 mph - N/A   Clear
2:56 PM 82.0 °F - 50.0 °F 33% 30.09 in 10.0 mi North 8.1 mph - N/A   Clear
3:56 PM 81.0 °F 80.4 °F 53.1 °F 38% 30.08 in 10.0 mi NNW 12.7 mph - N/A   Clear
4:56 PM 79.0 °F - 50.0 °F 36% 30.06 in 10.0 mi Calm Calm - N/A   Clear
5:56 PM 75.0 °F - 53.1 °F 46% 30.06 in 10.0 mi Variable 3.5 mph - N/A   Clear
6:56 PM 70.0 °F - 55.0 °F 59% 30.07 in 10.0 mi North 5.8 mph - N/A   Clear
7:56 PM 66.0 °F - 55.0 °F 68% 30.10 in 10.0 mi NNW 4.6 mph - N/A   Clear
8:56 PM 63.0 °F - 55.0 °F 75% 30.10 in 10.0 mi SE 3.5 mph - N/A   Clear
10:56 PM 61.0 °F - 53.1 °F 75% 30.11 in 10.0 mi Calm Calm - N/A   Clear
11:56 PM 57.9 °F - 53.1 °F 84% 30.10 in 10.0 mi Calm Calm - N/A   Clear